Home   Weather   Mechernich   Past weeks

Flag for Germany Past Weather in Mechernich, North Rhine-Westphalia, Germany — Yesterday and Last 2 Weeks

Now
27 °F

Passing clouds.


Feels Like: 23 °F
Forecast: 8 / 25 °F
Wind: 3 mph from West

Location: Noervenich

Current Time: Jan 18, 2017 at 7:13:33 pm

Latest Report: Jan 18, 2017 at 6:20 pm


Visibility: N/A

Pressure: 30.66 "Hg

Humidity: 80%

Dew Point: 21 °F

Location of MechernichLocation

Past Weather in Mechernich — Graph

°F

Mechernich Temperature Yesterday

Maximum temperature yesterday: 30 °F (at 2:20 pm)
Minimum temperature yesterday: 18 °F (at 8:20 am)
Average temperature yesterday: 24 °F

High & Low Weather Summary for the Past Weeks

 TemperatureHumidityPressure
High46 °F (Jan 11, 12:20 pm)100% (Jan 7, 4:20 pm)30.74 "Hg (Jan 7, 4:20 pm)
Low18 °F (Jan 6, 5:20 am)55% (Jan 6, 3:20 pm)28.94 "Hg (Jan 13, 1:20 am)
Average34 °F86%30.13 "Hg
* Reported Jan 3 5:00 pm — Jan 18 5:20 pm, Mechernich, Weather by CustomWeather, © 2017

Note: Actual official high and low records may vary slightly from our data, if they occured in-between our weather recording intervals... More about our weather records

Advertising

Mechernich Weather History for the Previous 24 Hours

Scroll right to see more
 ConditionsComfort  
Time TempWeatherWind HumidityBarometerVisibility
5:20 pm
Wed, Jan 18
28 °FPassing clouds.1 mph74%30.66 "HgN/A
4:20 pm30 °FPassing clouds.2 mph69%30.66 "HgN/A
3:20 pm30 °FScattered clouds.3 mph64%30.66 "HgN/A
2:20 pm30 °FPartly sunny.6 mph64%30.66 "HgN/A
1:20 pm28 °FPartly sunny.6 mph69%30.66 "HgN/A
12:20 pm27 °FPartly sunny.6 mph80%30.69 "HgN/A
11:20 am25 °FScattered clouds.3 mph80%30.69 "HgN/A
10:20 am23 °FPassing clouds.3 mph86%30.69 "HgN/A
9:20 am19 °FPassing clouds.3 mph93%30.69 "HgN/A
8:20 am18 °FPassing clouds.2 mph93%30.66 "Hg5 mi
7:20 am18 °FCold.1 mph93%30.66 "HgN/A
6:20 am18 °FCold.2 mph93%30.66 "HgN/A
5:20 am18 °FCold.2 mph93%30.66 "HgN/A
4:20 am18 °FCold.No wind86%30.66 "HgN/A
3:20 am19 °FCold.1 mph93%30.66 "HgN/A
2:20 am19 °FCold.3 mph93%30.66 "HgN/A
1:20 am21 °FCold.2 mph93%30.66 "HgN/A
12:20 am21 °FCold.1 mph93%30.66 "HgN/A
11:20 pm
Tue, Jan 17
21 °FCold.2 mph86%30.66 "HgN/A
10:20 pm23 °FPassing clouds.3 mph93%30.66 "HgN/A
9:20 pm23 °FPassing clouds.2 mph93%30.66 "HgN/A
8:47 pm21 °FPassing clouds.2 mph93%30.66 "HgN/A
8:20 pm23 °FPassing clouds.1 mph93%30.66 "HgN/A
7:20 pm25 °FPassing clouds.2 mph86%30.63 "HgN/A
Weather by CustomWeather, © 2017

See weather overviewHow to use our weather pages